METEOR 2-17 DEB

Satellite information

Favourite Embed

Satellite Type and Status

DEBRISIN ORBIT

Key statistics

Satellite METEOR 2-17 DEB at a glance.

Uptime

13776

Days in orbit

Revolutions

≈ 14.3

Per day

Orbit

LEO

Low Earth Orbit

Inclination

82.5

Latest

Satellite identification and parameters

Extended collection of information and parameters for METEOR 2-17 DEB.

Object identification

Identified? True

Debris? True

Object name: METEOR 2-17 DEB

International designator: 1988-005AT

Object number (NORAD): 38540

Object ID (CCSDS): 38540

Country: COMMONWEALTH OF INDEPENDENT STATES (CIS)

Current information (Y/N): Y

RCS size: SMALL

Orbital parameters

Period: 100.632 minutes

Inclination: 82.5093 deg

SMA: 7166.682 km

Apoapsis: 793.281 km

Periapsis: 783.813 km

RAAN: 228.329 deg

Eccentricy: 0.00066058

Argument of periapsis: 75.0123 deg

Mean anomaly: 285.1794 deg

Mean motion: 14.30953651 rev/day

Mean motion (dot): 0.00008237 rev/day2

B* drag term: 0.0031264585 1/REarth

Two-line elements (TLE)

Creation date: Oct. 12, 2025, 6:25 p.m.

Reference frame: TEME

Reference center: EARTH

Epoch: Oct. 12, 2025, 1:49 p.m. UTC

TLE line 0: 0 METEOR 2-17 DEB

TLE line 1: 1 38540U 88005AT 25285.57578743 .00008237 00000-0 31265-2 0 9998

TLE line 2: 2 38540 82.5093 228.3290 0006606 75.0123 285.1794 14.30953651113368

Live tracking on map

Real-time ground track for satellite METEOR 2-17 DEB.

In-orbit conjunctions

A list of the most updated potential collisions computed for object METEOR 2-17 DEB.

Target Orbit TCA Probability of collision Miss distance Type
FENGYUN 1C DEB SSO 2025-02-01 01:23:23 0.000505161 33.0 (m) DEBRIS
CZ-6A DEB LEO 2024-12-18 21:27:41 0.0002657555 421.0 (m) DEBRIS
FENGYUN 1C DEB SSO 2024-11-13 20:39:40 0.0002387915 206.0 (m) DEBRIS
CZ-6A DEB LEO 2024-10-04 13:42:14 0.00024056 487.0 (m) DEBRIS
FENGYUN 1C DEB SSO 2024-08-06 07:28:35 0.0001032061 215.0 (m) DEBRIS

Associated space launch

Second generation soviet meteorological satellite

METEOR 2-17 DEB was lifted into orbit during the mission ‘Tsiklon-3 | Meteor-2 17’, on board a Tsiklon-3 space rocket.

The launch took place on Jan. 30, 1988, 10:59 a.m. from 32/1.

For more information about the launch, click the button.

Launch to space Tsiklon-3 | Meteor-2 17
Tsiklon-3 | Meteor-2 17

Agency: N/A

Status: Launch Successful

Launch date: Jan. 30, 1988, 10:59 a.m. UTC

Rocket: Tsiklon-3

Launch pad: 32/1

Location: Plesetsk Cosmodrome, Russian Federation

...

Latest news about this satellite

There are no fresh news available about this satellite. Check back as we update our databases every day.


Newsletter sign-up

Weekly statistics, charts and insights to help you stay on top of the space industry.